Regional Weather Roundup
Issued by NWS

Home | Current Version | Previous Version | Text Only | Print | Product List | Glossary On
Versions: 1 2 3 4 5 6 7 8 9 10 11 12 13 14 15 16 17 18 19 20 21 22 23 24 25 26 27 28 29 30 31 32 33 34 35 36 37 38 39 40 41 42 43 44 45 46 47 48 49 50
000
ASUS43 KDMX 282007
RWRIA

WEATHER ROUNDUP FOR IOWA
NATIONAL WEATHER SERVICE DES MOINES IA
200 PM CST WED JAN 28 2015

NOTE: "FAIR" INDICATES FEW OR NO CLOUDS BELOW 12,000 FEET WITH NO
SIGNIFICANT WEATHER AND/OR OBSTRUCTIONS TO VISIBILITY.

* - THESE STATIONS ARE NOT NWS STATIONS...THUS NOT UNDER NWS
QUALITY CONTROL.  THEY ALSO DO NOT REPORT WEATHER SUCH
AS PRECIPITATION OR FOG.

IAZ001>003-012>014-020>022-031>034-043>046-282100-
   NORTHWEST IOWA

CITY           SKY/WX    TMP DP  RH WIND       PRES   REMARKS
CARROLL *      SUNNY     46  37  71 SE13G18   29.70F
CHEROKEE *     PTSUNNY   41  37  87 SE10      29.68F
DENISON *      SUNNY     48  37  66 S9G18     29.66F
LE MARS *      SUNNY     45  37  76 S8        29.68F
ORANGE CITY *  SUNNY     41  34  75 S9        29.68F
SHELDON *      CLOUDY    37  37 100 SE8       29.67F FOG     WCI  31
SIOUX CITY     PTSUNNY   48  36  63 S7        29.68F
SPENCER        CLOUDY    35  31  85 SE13      29.71F FOG     WCI  26
STORM LAKE *   SUNNY     39  36  87 SE13      29.69F WCI  32
$$

IAZ055>058-069>071-079>083-090>094-282100-
   SOUTHWEST IOWA

CITY           SKY/WX    TMP DP  RH WIND       PRES   REMARKS
ATLANTIC *     SUNNY     52  37  58 S10       29.70F
AUDUBON *      SUNNY     48  37  66 S9        29.72F
CLARINDA *     SUNNY     63  37  39 S16G24    29.70F
COUNCIL BLFS * SUNNY     52  36  54 SE9       29.68F
CRESTON *      SUNNY     52  37  58 SE16G22   29.72F
HARLAN  *      SUNNY     50  37  62 S12       29.74F
LAMONI         SUNNY     53  37  54 S13G22    29.75F
RED OAK *      SUNNY     59  37  44 S14G20    29.70F
SHENANDOAH *   SUNNY     63  39  42 S15       29.69F
$$

IAZ047>049-059>061-072>074-084-282100-
   CENTRAL IOWA

CITY           SKY/WX    TMP DP  RH WIND       PRES   REMARKS
AMES           PTSUNNY   43  33  68 SE13      29.76F
ANKENY *       SUNNY     46  36  66 SE17      29.77F
CHARITON *     SUNNY     50  37  62 S20G28    29.76F
DES MOINES     CLOUDY    48  35  60 S20       29.77F
GRINNELL*      PTSUNNY   41  34  75 SE18      29.81F
KNOXVILLE *    SUNNY     46  34  61 SE17      29.77F
MARSHALLTOWN   PTSUNNY   39  33  79 SE23      29.78F WCI  28
PELLA *        CLOUDY    45  34  65 SE15      29.81F
PERRY *          N/A     46  36  66 SE16      29.72F
$$

IAZ004>006-015-016-023>025-035-036-282100-
   NORTH CENTRAL IOWA

CITY           SKY/WX    TMP DP  RH WIND       PRES   REMARKS
ALGONA *       PTSUNNY   34  32  93 SE17G23   29.74F FOG     WCI  23
CLARION *      CLOUDY    36  36 100 SE15G21   29.77F FOG     WCI  26
ESTHERVILLE    CLOUDY    31  30  96 SE17      29.73F FOG     WCI  19
FORT DODGE *   CLOUDY    37  30  75 SE6       29.75F WCI  33
MASON CITY     CLOUDY    34  30  85 SE16      29.80F FOG     WCI  24
FOREST CITY *  CLOUDY    34  32  93 SE16      29.78F FOG     WCI  23
IOWA FALLS *   PTSUNNY   39  34  81 SE18      29.79F WCI  30
$$

IAZ007>011-017>019-026>030-037>042-050>054-066-282100-
   NORTHEAST IOWA

CITY           SKY/WX    TMP DP  RH WIND       PRES   REMARKS
CEDAR RAPIDS   PTSUNNY   38  31  76 SE16G25   29.88F WCI  29
CHARLES CITY * CLOUDY    34  32  93 SE21G29   29.82F WCI  22
CLINTON *      CLOUDY    34  25  69 SE21      30.01F WCI  22
DECORAH *      SUNNY     34  27  75 SE14G24   29.86F WCI  24
DUBUQUE        CLOUDY    31  21  66 SE22G31   29.94F WCI  18
MONTICELLO *   SUNNY     34  27  75 SE18G29   29.93F WCI  23
OELWEIN *      MOSUNNY   36  30  80 SE24G30   29.85F WCI  24
WATERLOO       CLOUDY    36  30  79 SE18G28   29.82F WCI  26
$$

IAZ064-065-067-068-078-282100-
   EAST CENTRAL IOWA

CITY           SKY/WX    TMP DP  RH WIND       PRES   REMARKS
DAVENPORT      PTSUNNY   35  25  66 SE21G30   29.97F WCI  24
IOWA CITY      MOSUNNY   37  31  78 SE15      29.91F WCI  28
MT. PLEASANT * MOSUNNY   41  32  70 SE22G28   29.90F
MUSCATINE *    SUNNY     39  30  70 SE15G22   29.93F WCI  31
QUAD CITIES    PTSUNNY   35  27  72 SE14      29.98F WCI  26
$$

IAZ062-063-075>077-085>089-095>099-282100-
   SOUTHEAST IOWA

CITY           SKY/WX    TMP DP  RH WIND       PRES   REMARKS
BURLINGTON     SUNNY     43  32  65 S14       29.93F
FAIRFIELD *    SUNNY     41  32  70 SE14G23   29.86F
FORT MADISON * SUNNY     43  34  70 SE13G24   29.93F
KEOKUK *       SUNNY     45  34  65 SE15G22   29.92F
OSKALOOSA *      N/A     43  36  75 SE16G22   29.83F
CENTERVILLE *  SUNNY     48  36  61 SE14      29.82F
OTTUMWA        PTSUNNY   43  33  68 S16G26    29.83F
WASHINGTON *   SUNNY     41  37  87 SE22G29   29.88F
$$

ABBREVIATIONS USED IN REMARKS
   TC - TEMPERATURES IN CELSIUS
  WCI - WIND CHILL INDEX
   HX - HEAT INDEX
  VSB - VISIBILITY
$$




USA.gov is the U.S. government's official web portal to all federal, state and local government web resources and services.